2015-06-06, 07:13:04,VALID,915.457,VALID,0,VALID,98.9138,VALID,87.0273,VALID,20.4244,VALID,139,VALID,0,
2015-06-06, 07:14:04,VALID,915.493,VALID,0,VALID,98.9596,VALID,82.9446,VALID,20.4228,VALID,138,VALID,0,
2015-06-06, 07:15:04,VALID,915.489,VALID,0,VALID,98.9443,VALID,77.5725,VALID,20.504,VALID,137,VALID,0,
2015-06-06, 07:16:04,VALID,915.484,VALID,0,VALID,98.9062,VALID,121.516,VALID,20.5625,VALID,136,VALID,0,
2015-06-06, 07:17:04,VALID,915.51,VALID,0,VALID,98.8833,VALID,134.301,VALID,20.6795,VALID,135,VALID,0,
2015-06-06, 07:18:04,VALID,915.514,VALID,0,VALID,98.8452,VALID,143.756,VALID,20.795,VALID,135,VALID,0,
2015-06-06, 07:19:04,VALID,915.578,VALID,0,VALID,98.8223,VALID,149.128,VALID,20.912,VALID,135,VALID,0,
2015-06-06, 07:20:04,VALID,915.609,VALID,0,VALID,98.8681,VALID,155.79,VALID,20.9316,VALID,135,VALID,0,
2015-06-06, 07:21:04,VALID,915.611,VALID,0,VALID,98.9138,VALID,161.054,VALID,20.9511,VALID,130,VALID,0,
2015-06-06, 07:22:04,VALID,915.647,VALID,0,VALID,98.8833,VALID,163.848,VALID,21.0486,VALID,130,VALID,0,
2015-06-06, 07:23:04,VALID,915.645,VALID,0,VALID,98.8147,VALID,163.203,VALID,21.2258,VALID,130,VALID,0,
2015-06-06, 07:24:04,VALID,915.659,VALID,0,VALID,98.7156,VALID,163.848,VALID,21.4388,VALID,130,VALID,0,
2015-06-06, 07:25:04,VALID,915.652,VALID,0,VALID,98.7385,VALID,167.178,VALID,21.4762,VALID,130,VALID,0,
2015-06-06, 07:26:04,VALID,915.672,VALID,0,VALID,98.8071,VALID,176.526,VALID,21.4973,VALID,130,VALID,0,
2015-06-06, 07:27:04,VALID,915.693,VALID,0,VALID,98.8757,VALID,179.319,VALID,21.4372,VALID,156,VALID,0,
2015-06-06, 07:28:04,VALID,915.66,VALID,0,VALID,98.8452,VALID,178.567,VALID,21.5168,VALID,156,VALID,0,
2015-06-06, 07:29:04,VALID,915.662,VALID,0,VALID,98.7918,VALID,184.369,VALID,21.6356,VALID,156,VALID,0,
2015-06-06, 07:30:04,VALID,915.646,VALID,0,VALID,98.7004,VALID,184.262,VALID,21.712,VALID,156,VALID,0,
2015-06-06, 07:31:04,VALID,915.665,VALID,0,VALID,98.6013,VALID,183.939,VALID,21.751,VALID,156,VALID,0,
2015-06-06, 07:32:04,VALID,915.66,VALID,0,VALID,98.3116,VALID,182.22,VALID,21.712,VALID,156,VALID,0,
2015-06-06, 07:33:04,VALID,915.702,VALID,0,VALID,97.4882,VALID,179.319,VALID,21.7315,VALID,156,VALID,0,
2015-06-06, 07:34:04,VALID,915.716,VALID,0,VALID,96.2456,VALID,173.303,VALID,21.751,VALID,157,VALID,0,
2015-06-06, 07:35:04,VALID,915.777,VALID,0,VALID,95.529,VALID,163.848,VALID,21.79,VALID,138,VALID,0,
2015-06-06, 07:36:04,VALID,915.763,VALID,0,VALID,94.8277,VALID,159.12,VALID,21.7883,VALID,137,VALID,0,
2015-06-06, 07:37:04,VALID,915.769,VALID,0,VALID,94.1797,VALID,161.914,VALID,21.7883,VALID,145,VALID,0,
2015-06-06, 07:38:04,VALID,915.809,VALID,0,VALID,94.4389,VALID,163.311,VALID,21.8274,VALID,161,VALID,0,
2015-06-06, 07:39:04,VALID,915.823,VALID,0,VALID,94.3017,VALID,158.798,VALID,21.8079,VALID,161,VALID,0,
2015-06-06, 07:40:04,VALID,915.866,VALID,0,VALID,93.9967,VALID,158.798,VALID,21.7688,VALID,162,VALID,0,
2015-06-06, 07:41:04,VALID,915.935,VALID,0,VALID,94.2178,VALID,162.344,VALID,21.7493,VALID,152,VALID,0,
2015-06-06, 07:42:04,VALID,915.979,VALID,0,VALID,94.3703,VALID,169.435,VALID,21.7493,VALID,162,VALID,0,
2015-06-06, 07:43:04,VALID,915.995,VALID,0,VALID,94.4846,VALID,183.295,VALID,21.7298,VALID,146,VALID,0,
2015-06-06, 07:44:04,VALID,916.003,VALID,0,VALID,94.8505,VALID,192.857,VALID,21.7867,VALID,146,VALID,0,
2015-06-06, 07:45:04,VALID,915.998,VALID,0,VALID,94.8124,VALID,203.816,VALID,21.8469,VALID,153,VALID,0,
2015-06-06, 07:46:04,VALID,916.011,VALID,0,VALID,94.4313,VALID,215.527,VALID,21.8859,VALID,170,VALID,0,
2015-06-06, 07:47:04,VALID,916.011,VALID,0,VALID,94.1797,VALID,224.122,VALID,21.9444,VALID,119,VALID,0,
2015-06-06, 07:48:04,VALID,915.996,VALID,0,VALID,94.5761,VALID,222.94,VALID,21.9623,VALID,125,VALID,0,
2015-06-06, 07:49:04,VALID,915.989,VALID,0,VALID,94.5913,VALID,234.651,VALID,22.0208,VALID,123,VALID,0,
2015-06-06, 07:50:04,VALID,916.032,VALID,0,VALID,94.3931,VALID,238.197,VALID,22.1184,VALID,183,VALID,0,
2015-06-06, 07:51:04,VALID,916.001,VALID,0,VALID,93.9891,VALID,241.85,VALID,22.2159,VALID,183,VALID,0,
2015-06-06, 07:52:04,VALID,916.019,VALID,0,VALID,93.0438,VALID,244.429,VALID,22.3135,VALID,163,VALID,0,
2015-06-06, 07:53:04,VALID,916.045,VALID,0,VALID,89.72,VALID,246.47,VALID,22.3916,VALID,162,VALID,0,
2015-06-06, 07:54:04,VALID,916.054,VALID,0,VALID,88.5536,VALID,252.272,VALID,22.4111,VALID,130,VALID,0,
2015-06-06, 07:55:04,VALID,916.098,VALID,0,VALID,88.6451,VALID,258.289,VALID,22.4891,VALID,131,VALID,0,
2015-06-06, 07:56:04,VALID,916.087,VALID,0,VALID,89.2473,VALID,263.875,VALID,22.5672,VALID,106,VALID,0,
2015-06-06, 07:57:04,VALID,916.127,VALID,0,VALID,89.133,VALID,264.95,VALID,22.7038,VALID,106,VALID,0,
2015-06-06, 07:58:04,VALID,916.15,VALID,0,VALID,88.7213,VALID,269.677,VALID,22.8794,VALID,107,VALID,0,
2015-06-06, 07:59:04,VALID,916.162,VALID,0,VALID,87.7836,VALID,278.165,VALID,23.0533,VALID,115,VALID,0,
2015-06-06, 08:00:04,VALID,916.186,VALID,0,VALID,84.3607,VALID,289.984,VALID,23.016,VALID,170,VALID,0.0976563,
2015-06-06, 08:01:04,VALID,916.196,VALID,0,VALID,86.5258,VALID,291.918,VALID,22.9185,VALID,169,VALID,0,
2015-06-06, 08:02:04,VALID,916.274,VALID,0,VALID,86.2056,VALID,302.339,VALID,22.9185,VALID,170,VALID,0,
2015-06-06, 08:03:04,VALID,916.275,VALID,0,VALID,85.9235,VALID,308.571,VALID,22.9185,VALID,170,VALID,0,
2015-06-06, 08:04:04,VALID,916.276,VALID,0,VALID,87.25,VALID,315.017,VALID,22.9362,VALID,165,VALID,0,
2015-06-06, 08:05:04,VALID,916.321,VALID,0,VALID,87.6769,VALID,330.596,VALID,23.1119,VALID,165,VALID,0,
2015-06-06, 08:06:04,VALID,916.341,VALID,0,VALID,86.5639,VALID,346.175,VALID,23.307,VALID,165,VALID,0,
2015-06-06, 08:07:04,VALID,916.367,VALID,0,VALID,84.4522,VALID,357.886,VALID,23.4046,VALID,161,VALID,0,
2015-06-06, 08:08:04,VALID,916.379,VALID,0,VALID,83.4459,VALID,363.044,VALID,23.465,VALID,155,VALID,0,
2015-06-06, 08:09:04,VALID,916.437,VALID,0,VALID,84.3988,VALID,368.953,VALID,23.6388,VALID,148,VALID,0,
2015-06-06, 08:10:04,VALID,916.443,VALID,0,VALID,84.3074,VALID,375.185,VALID,23.8926,VALID,148,VALID,0,
2015-06-06, 08:11:04,VALID,916.489,VALID,0,VALID,83.2858,VALID,383.457,VALID,24.0878,VALID,148,VALID,0,
2015-06-06, 08:12:04,VALID,916.515,VALID,0,VALID,82.7064,VALID,389.152,VALID,24.2458,VALID,151,VALID,0,
2015-06-06, 08:13:04,VALID,916.5,VALID,0,VALID,79.1539,VALID,393.342,VALID,24.2654,VALID,144,VALID,0,
2015-06-06, 08:14:04,VALID,916.491,VALID,0,VALID,80.8311,VALID,391.838,VALID,24.3221,VALID,170,VALID,0,
2015-06-06, 08:15:04,VALID,916.532,VALID,0,VALID,80.5566,VALID,390.871,VALID,24.3806,VALID,157,VALID,0,
2015-06-06, 08:16:04,VALID,916.49,VALID,0,VALID,81.1665,VALID,391.623,VALID,24.402,VALID,155,VALID,0,
2015-06-06, 08:17:04,VALID,916.553,VALID,0,VALID,80.1221,VALID,394.202,VALID,24.4002,VALID,172,VALID,0,
2015-06-06, 08:18:04,VALID,916.593,VALID,0,VALID,79.8248,VALID,399.359,VALID,24.4997,VALID,231,VALID,0,
2015-06-06, 08:19:04,VALID,916.57,VALID,0,VALID,77.5606,VALID,407.417,VALID,24.5564,VALID,201,VALID,0,
2015-06-06, 08:20:04,VALID,916.549,VALID,0,VALID,77.4692,VALID,408.814,VALID,24.5954,VALID,210,VALID,0,
2015-06-06, 08:21:04,VALID,916.58,VALID,0,VALID,78.5822,VALID,408.276,VALID,24.7126,VALID,186,VALID,0,
2015-06-06, 08:22:04,VALID,916.606,VALID,0,VALID,79.5961,VALID,404.946,VALID,24.8297,VALID,186,VALID,0,
2015-06-06, 08:23:04,VALID,916.55,VALID,0,VALID,81.2275,VALID,413.756,VALID,24.9469,VALID,110,VALID,0,
2015-06-06, 08:24:04,VALID,916.598,VALID,0,VALID,76.623,VALID,422.566,VALID,25.0055,VALID,152,VALID,0,
2015-06-06, 08:25:04,VALID,916.571,VALID,0,VALID,74.2673,VALID,425.682,VALID,24.9859,VALID,204,VALID,0.0121094,
2015-06-06, 08:26:04,VALID,916.584,VALID,0,VALID,74.1072,VALID,226.486,VALID,24.9664,VALID,208,VALID,0,
2015-06-06, 08:27:04,VALID,916.573,VALID,0,VALID,74.3893,VALID,203.494,VALID,24.9683,VALID,208,VALID,0,
2015-06-06, 08:28:04,VALID,916.587,VALID,0,VALID,75.0297,VALID,320.067,VALID,24.9664,VALID,199,VALID,0,
2015-06-06, 08:29:04,VALID,916.585,VALID,0,VALID,75.5328,VALID,439.005,VALID,25.064,VALID,199,VALID,0,
2015-06-06, 08:30:04,VALID,916.578,VALID,0,VALID,74.2673,VALID,348.217,VALID,25.025,VALID,212,VALID,0,
2015-06-06, 08:31:04,VALID,916.603,VALID,0,VALID,75.975,VALID,221.544,VALID,25.0659,VALID,212,VALID,0,
2015-06-06, 08:32:04,VALID,916.573,VALID,0,VALID,77.8656,VALID,191.245,VALID,25.0836,VALID,186,VALID,0,
2015-06-06, 08:33:04,VALID,916.619,VALID,0,VALID,78.9633,VALID,200.163,VALID,25.0836,VALID,208,VALID,0,
2015-06-06, 08:34:04,VALID,916.628,VALID,0,VALID,79.6647,VALID,204.246,VALID,24.9664,VALID,208,VALID,0,
2015-06-06, 08:35:04,VALID,916.622,VALID,0,VALID,78.7041,VALID,325.547,VALID,24.7693,VALID,177,VALID,0,
2015-06-06, 08:36:04,VALID,916.613,VALID,0,VALID,77.7741,VALID,230.998,VALID,24.6735,VALID,177,VALID,0,
2015-06-06, 08:37:04,VALID,916.637,VALID,0,VALID,78.0257,VALID,265.165,VALID,24.6345,VALID,178,VALID,0,
2015-06-06, 08:38:04,VALID,916.577,VALID,0,VALID,79.4436,VALID,217.891,VALID,24.5954,VALID,179,VALID,0,
2015-06-06, 08:39:04,VALID,916.599,VALID,0,VALID,79.2759,VALID,192.535,VALID,24.5564,VALID,179,VALID,0,
2015-06-06, 08:40:04,VALID,916.601,VALID,0,VALID,77.1718,VALID,193.072,VALID,24.4392,VALID,221,VALID,0,
2015-06-06, 08:41:04,VALID,916.589,VALID,0,VALID,78.8261,VALID,171.906,VALID,24.4002,VALID,212,VALID,0,
2015-06-06, 08:42:04,VALID,916.587,VALID,0,VALID,78.7118,VALID,185.766,VALID,24.3593,VALID,201,VALID,0,
2015-06-06, 08:43:04,VALID,916.637,VALID,0,VALID,78.9252,VALID,204.89,VALID,24.1873,VALID,166,VALID,0,
2015-06-06, 08:44:04,VALID,916.635,VALID,0,VALID,81.3342,VALID,247.867,VALID,24.0506,VALID,166,VALID,0,
2015-06-06, 08:45:04,VALID,916.639,VALID,0,VALID,80.9531,VALID,298.901,VALID,23.9335,VALID,168,VALID,0.00585938,
2015-06-06, 08:46:04,VALID,916.647,VALID,0,VALID,80.9378,VALID,297.719,VALID,23.834,VALID,188,VALID,0,
2015-06-06, 08:47:04,VALID,916.646,VALID,0,VALID,79.7486,VALID,290.628,VALID,23.8749,VALID,153,VALID,0,
2015-06-06, 08:48:04,VALID,916.673,VALID,0,VALID,81.4028,VALID,279.884,VALID,23.9335,VALID,168,VALID,0,
2015-06-06, 08:49:04,VALID,916.649,VALID,0,VALID,80.671,VALID,290.951,VALID,23.9725,VALID,163,VALID,0,
2015-06-06, 08:50:04,VALID,916.617,VALID,0,VALID,80.8768,VALID,431.376,VALID,24.0878,VALID,162,VALID,0,
2015-06-06, 08:51:04,VALID,916.606,VALID,0,VALID,81.6773,VALID,552.033,VALID,24.3435,VALID,142,VALID,0,
2015-06-06, 08:52:04,VALID,916.614,VALID,0,VALID,78.4602,VALID,541.503,VALID,24.6559,VALID,111,VALID,0,
2015-06-06, 08:53:04,VALID,916.602,VALID,0,VALID,76.844,VALID,532.478,VALID,24.8511,VALID,213,VALID,0,
2015-06-06, 08:54:04,VALID,916.583,VALID,0,VALID,77.3014,VALID,519.371,VALID,24.9469,VALID,213,VALID,0,
2015-06-06, 08:55:04,VALID,916.607,VALID,0,VALID,75.1516,VALID,522.594,VALID,25.025,VALID,211,VALID,0,
2015-06-06, 08:56:04,VALID,916.594,VALID,0,VALID,77.9647,VALID,523.776,VALID,25.1812,VALID,213,VALID,0,
2015-06-06, 08:57:04,VALID,916.61,VALID,0,VALID,78.7651,VALID,526.784,VALID,25.3784,VALID,213,VALID,0,
2015-06-06, 08:58:04,VALID,916.615,VALID,0,VALID,76.3333,VALID,536.883,VALID,25.3765,VALID,213,VALID,0,
2015-06-06, 08:59:04,VALID,916.596,VALID,0,VALID,77.3548,VALID,516.792,VALID,25.2984,VALID,213,VALID,0,
2015-06-06, 09:00:04,VALID,916.582,VALID,0,VALID,78.5822,VALID,522.164,VALID,25.2788,VALID,213,VALID,0,
2015-06-06, 09:01:04,VALID,916.542,VALID,0,VALID,78.4831,VALID,539.784,VALID,25.2593,VALID,256,VALID,0,
2015-06-06, 09:02:04,VALID,916.534,VALID,0,VALID,78.5822,VALID,559.231,VALID,25.2788,VALID,356,VALID,0,
2015-06-06, 09:03:04,VALID,916.533,VALID,0,VALID,76.7068,VALID,563.636,VALID,25.3765,VALID,346,VALID,0,
2015-06-06, 09:04:04,VALID,916.548,VALID,0,VALID,74.9611,VALID,565.033,VALID,25.2222,VALID,327,VALID,0,
2015-06-06, 09:05:04,VALID,916.548,VALID,0,VALID,77.5606,VALID,563.207,VALID,25.2007,VALID,327,VALID,0,
2015-06-06, 09:06:04,VALID,916.545,VALID,0,VALID,78.1629,VALID,570.942,VALID,25.3179,VALID,346,VALID,0,
2015-06-06, 09:07:04,VALID,916.62,VALID,0,VALID,76.7602,VALID,584.265,VALID,25.5132,VALID,342,VALID,0.5375,
2015-06-06, 09:08:04,VALID,916.613,VALID,0,VALID,75.6472,VALID,578.571,VALID,25.4156,VALID,305,VALID,0.872656,
2015-06-06, 09:09:04,VALID,916.653,VALID,0,VALID,76.9889,VALID,609.621,VALID,25.2808,VALID,301,VALID,0,
2015-06-06, 09:10:04,VALID,916.673,VALID,0,VALID,77.3853,VALID,400.97,VALID,25.064,VALID,306,VALID,0,
2015-06-06, 09:11:04,VALID,916.645,VALID,0,VALID,79.1082,VALID,312.009,VALID,24.8297,VALID,299,VALID,0,
2015-06-06, 09:12:04,VALID,916.632,VALID,0,VALID,79.0472,VALID,434.707,VALID,24.7302,VALID,311,VALID,0,
2015-06-06, 09:13:04,VALID,916.685,VALID,0,VALID,79.4817,VALID,582.653,VALID,24.7888,VALID,265,VALID,0,
2015-06-06, 09:14:04,VALID,916.637,VALID,0,VALID,78.666,VALID,576.852,VALID,24.8669,VALID,237,VALID,0,
2015-06-06, 09:15:04,VALID,916.629,VALID,0,VALID,78.4983,VALID,485.312,VALID,24.8278,VALID,243,VALID,0,
2015-06-06, 09:16:04,VALID,916.633,VALID,0,VALID,79.779,VALID,515.18,VALID,24.9059,VALID,260,VALID,0,
2015-06-06, 09:17:04,VALID,916.64,VALID,0,VALID,79.4589,VALID,566.967,VALID,25.0036,VALID,259,VALID,0,
2015-06-06, 09:18:04,VALID,916.638,VALID,0,VALID,75.7996,VALID,572.446,VALID,24.9645,VALID,254,VALID,0,
2015-06-06, 09:19:04,VALID,916.64,VALID,0,VALID,77.0499,VALID,397.317,VALID,24.8864,VALID,254,VALID,0,
2015-06-06, 09:20:04,VALID,916.661,VALID,0,VALID,77.027,VALID,309.216,VALID,24.945,VALID,275,VALID,0,
2015-06-06, 09:21:04,VALID,916.64,VALID,0,VALID,75.5862,VALID,438.145,VALID,25.0231,VALID,282,VALID,0,
2015-06-06, 09:22:04,VALID,916.676,VALID,0,VALID,73.1162,VALID,341.878,VALID,25.1031,VALID,282,VALID,0,
2015-06-06, 09:23:04,VALID,916.607,VALID,0,VALID,72.7198,VALID,465.113,VALID,25.0426,VALID,282,VALID,0,
2015-06-06, 09:24:04,VALID,916.601,VALID,0,VALID,74.5799,VALID,250.338,VALID,24.8864,VALID,282,VALID,0,
2015-06-06, 13:01:04,VALID,915.452,VALID,0,VALID,74.3436,VALID,300.191,VALID,27.076,VALID,22,VALID,0.825781,
2015-06-06, 13:02:04,VALID,915.431,VALID,0,VALID,70.9969,VALID,316.951,VALID,27.1541,VALID,24,VALID,0,
2015-06-06, 13:03:04,VALID,915.391,VALID,0,VALID,70.4022,VALID,901.216,VALID,27.2127,VALID,46,VALID,0,
2015-06-06, 13:04:04,VALID,915.372,VALID,0,VALID,71.6677,VALID,906.481,VALID,27.2107,VALID,46,VALID,0,
2015-06-06, 13:05:04,VALID,915.355,VALID,0,VALID,71.8507,VALID,898.101,VALID,27.2909,VALID,46,VALID,0,
2015-06-06, 13:06:04,VALID,915.342,VALID,0,VALID,70.8063,VALID,892.943,VALID,27.4668,VALID,46,VALID,0,
2015-06-06, 13:07:04,VALID,915.296,VALID,0,VALID,70.6691,VALID,592.431,VALID,27.7208,VALID,46,VALID,0,
2015-06-06, 13:08:04,VALID,915.285,VALID,0,VALID,66.8269,VALID,873.711,VALID,28.0726,VALID,5,VALID,0,
2015-06-06, 13:09:04,VALID,915.253,VALID,0,VALID,64.4712,VALID,882.414,VALID,28.2855,VALID,274,VALID,0,
2015-06-06, 13:10:04,VALID,915.203,VALID,0,VALID,62.9161,VALID,435.566,VALID,28.4831,VALID,274,VALID,0,
2015-06-06, 13:11:04,VALID,915.164,VALID,0,VALID,62.8779,VALID,872.852,VALID,28.2073,VALID,141,VALID,0,
2015-06-06, 13:12:04,VALID,915.131,VALID,0,VALID,67.4672,VALID,356.705,VALID,27.9749,VALID,115,VALID,0,
2015-06-06, 13:13:04,VALID,915.133,VALID,0,VALID,63.0152,VALID,854.694,VALID,27.836,VALID,143,VALID,0,
2015-06-06, 13:14:04,VALID,915.083,VALID,0,VALID,62.4205,VALID,853.298,VALID,27.799,VALID,154,VALID,0,
2015-06-06, 13:15:04,VALID,915.042,VALID,0,VALID,61.399,VALID,857.058,VALID,28.0335,VALID,154,VALID,0,
2015-06-06, 13:16:04,VALID,914.991,VALID,0,VALID,62.5959,VALID,850.719,VALID,28.2485,VALID,154,VALID,0,
2015-06-06, 13:17:04,VALID,915.001,VALID,0,VALID,65.2946,VALID,831.702,VALID,28.5005,VALID,54,VALID,0,
2015-06-06, 13:18:04,VALID,914.964,VALID,0,VALID,62.1232,VALID,824.503,VALID,28.6764,VALID,54,VALID,0,
